Location: Acton
(51.4942°N, 0.2232°W)
Time: 04:01:33
(UTC+00:00)

ARIANE 5 R/B - Pass Details

Date: 18 September 2020
Orbit: 620 x 657 km, 98.2° (Epoch: 09 October)

Event Time Altitude Azimuth Distance (km) Brightness Sun altitude
Exits shadow 21:15:16 51° 274° (W) 786 3.2 -27.3°
Drops below altitude 10° 21:19:16 10° 337° (NNW) 2,003 6.0 -27.7°
Sets 21:21:30 0° 342° (NNW) 2,913 7.0 -28.0°
